sat.trackr.live / text

‹ back to catalog

ICEYE-X39

NORAD 60546 · 2024-149CG

PAYLOAD ACTIVE UNKNOWN

§ Identity

Operator
Country
BRAZ
Launch date
2024-08-16
Launch site
AFWTR
Launch vehicle
Mass (kg)
RCS (m²)

External: N2YO · Heavens-Above · Gunter

§ Orbital elements

Epoch: 2026-05-25T04:38:19.213152Z

Period
96.02 min
Inclination
97.6785°
Eccentricity
0.0003168
Mean motion
14.99730919 rev/d
Perigee alt
565.5 km
Apogee alt
569.9 km
Semi-major
6,945.9 km
B*
1.9907e-4
RAAN
222.5317°
Arg perigee
168.2511°
Mean anomaly
191.8786°
Rev number
9,667

§ Raw data

ICEYE-X391 60546U 24149CG  26145.19327793  .00002399  00000+0  19907-3 0  99912 60546  97.6785 222.5317 0003168 168.2511 191.8786 14.99730919 96679

JSON: /api/v1/satellites/60546 · /tle

For live sub-satellite position, see the globe view (requires WebGL).

§ Visibility from observer

Set your observer location to see the next 7 days of passes ≥ 10°. The values pass through the URL so the page stays shareable.

No JS? Fill the form by hand. The geolocation button needs JavaScript.